Great Falls International Airport Great Falls US
ICAO: KGTF
IATA: GTF
Category: Medium
Scheduled Services: Yes

Elevation: 3680 ft
TransAlt. 18000 ft.

Airport Communications:
APP/DEP:128.6
ATIS:126.6
GND/CLNC DEL:121.7
ANG OPS MAINT:28.89
RDO:122.6
TWR:118.7
UNICOM:122.95

KGTF Zoom In..

Runways:

(A) RW 03 length 10502 ft width 150 ft
ILS 111.30 / hdg 29

(B) RW 07 length 4294 ft width 75 ft
---- / hdg 74

(C) RW 16 length 5722 ft width 150 ft
---- / hdg 164

(D) RW 21 length 10502 ft width 150 ft
---- / hdg 209

(E) RW 25 length 4294 ft width 75 ft
---- / hdg 254

(F) RW 34 length 5722 ft width 150 ft
---- / hdg 344

Location; KGTF
Day. 23 / Time. 09.53 Zulu
* Altimeter: 30.28
* Temperature: 13° c. 55.4°f.
* Wind from: 130° Speed 05 kn.
Dewpoint: 05° c.
Visibility: 10 Statute Miles.
Clouds: Clear (automated report).

KGTF 230953Z 13005KT 10SM CLR 13/05 A3028 RMK AO2 SLP230 T01280050


Wind From 130°
Speed 05 kn.

 
 
jpsmedia.com for Web Design worldairports.se 2018   terms of use